EW5123 Weather Reports


time (UTC)temp
F
wind
direction
speed
knots
gust
knots
rain 1hr
in
rain 24hr
in
rain mn
in
humidity
%
barometer
mb
20260904144433 73 220 0.9 3.5 0.00 0.00 0.00 30 984.7
20260904143931 71 203 0.0 2.6 0.00 0.00 0.00 31 984.7
20260904143432 71 214 0.0 3.5 0.00 0.00 0.00 31 984.7
20260904142932 70 221 0.0 3.5 0.00 0.00 0.00 32 984.7
20260904142538 67 243 0.0 0.9 0.00 0.00 0.00 35 984.7
20260904142437 68 356 0.0 0.9 0.00 0.00 0.00 34 984.6
20260904142432 69 243 0.0 0.9 0.00 0.00 0.00 32 984.7
20260904141537 65 187 0.0 0.9 0.00 0.00 0.00 40 984.5
20260904140432 63 129 0.0 0.0 0.00 0.00 0.00 44 984.5
20260904135931 63 159 0.0 0.0 0.00 0.00 0.00 44 984.5
20260904135432 63 159 0.0 0.0 0.00 0.00 0.00 44 984.4
20260904134933 63 135 0.0 0.0 0.00 0.00 0.00 44 984.4
20260904134431 62 155 0.0 0.0 0.00 0.00 0.00 42 984.4
20260904133936 60 154 0.0 0.0 0.00 0.00 0.00 43 984.3
20260904133932 61 154 0.0 0.0 0.00 0.00 0.00 41 984.3
20260904132936 60 154 0.0 0.0 0.00 0.00 0.00 45 984.1
20260904132932 60 154 0.0 0.0 0.00 0.00 0.00 44 984.1
20260904131932 60 154 0.0 0.0 0.00 0.00 0.00 45 984.1
20260904131431 60 111 0.0 0.0 0.00 0.00 0.00 44 984.0
20260904130936 59 184 0.0 0.0 0.00 0.00 0.00 43 983.7
20260904130932 60 188 0.0 0.0 0.00 0.00 0.00 43 983.8
20260904125931 60 295 0.0 0.0 0.00 0.00 0.00 41 983.7
20260904125432 60 295 0.0 0.0 0.00 0.00 0.00 40 983.5
20260904124931 61 295 0.0 0.0 0.00 0.00 0.00 39 983.5
20260904124432 62 322 0.0 0.0 0.00 0.00 0.00 37 983.4
20260904123931 63 322 0.0 2.6 0.00 0.00 0.00 36 983.4
20260904123432 64 323 0.0 3.5 0.00 0.00 0.00 35 983.3
20260904122932 64 244 0.0 3.5 0.00 0.00 0.00 34 983.2
20260904122432 64 252 0.0 2.6 0.00 0.00 0.00 35 983.2
20260904121932 64 229 0.0 1.7 0.00 0.00 0.00 34 983.2
20260904121432 65 180 0.0 3.5 0.00 0.00 0.00 33 983.2
20260904120931 65 195 0.0 3.5 0.00 0.00 0.00 33 983.0
20260904120437 65 279 1.7 6.1 0.00 0.00 0.00 33 982.8
20260904120432 65 206 0.9 6.1 0.00 0.00 0.00 33 983.1
20260904115436 65 179 1.7 5.2 0.00 0.00 0.00 33 982.7
20260904115432 65 212 1.7 5.2 0.00 0.00 0.00 34 983.0
20260904115038 66 203 1.7 5.2 0.00 0.00 0.00 32 982.8
20260904113931 65 200 0.9 4.3 0.00 0.00 0.00 33 982.8
20260904113429 65 242 0.0 2.6 0.00 0.00 0.00 33 982.8
20260904112929 65 232 0.9 3.5 0.00 0.00 0.00 33 982.8
20260904112430 66 224 0.9 4.3 0.00 0.00 0.00 32 982.8
20260904111930 65 171 0.9 4.3 0.00 0.00 0.00 33 983.0
20260904111429 65 208 0.0 2.6 0.00 0.00 0.00 33 983.0
20260904110929 65 231 0.0 2.6 0.00 0.00 0.00 33 982.8
20260904110434 66 259 0.0 1.7 0.00 0.00 0.00 33 982.8
20260904110429 66 293 0.0 2.6 0.00 0.00 0.00 32 982.8
20260904105430 66 198 0.0 1.7 0.00 0.00 0.00 32 982.8
20260904104930 66 216 0.0 0.9 0.00 0.00 0.00 32 982.7
20260904104431 67 281 0.0 1.7 0.00 0.00 0.00 32 982.8
20260904103928 67 233 0.0 2.6 0.00 0.00 0.00 31 982.6
20260904103428 67 235 1.7 5.2 0.00 0.00 0.00 31 982.6
20260904102928 67 200 2.6 5.2 0.00 0.00 0.00 31 982.5
20260904102428 67 184 1.7 4.3 0.00 0.00 0.00 31 982.4
20260904101927 67 199 1.7 5.2 0.00 0.00 0.00 31 982.1
20260904101428 67 215 1.7 5.2 0.00 0.00 0.00 31 982.1
20260904100927 67 206 1.7 5.2 0.00 0.00 0.00 31 982.1
20260904100427 67 224 1.7 5.2 0.00 0.00 0.00 31 982.0
20260904095926 68 203 1.7 3.5 0.00 0.00 0.00 31 982.0
20260904095426 68 199 0.9 4.3 0.00 0.00 0.00 31 982.0
20260904094925 68 219 0.9 4.3 0.00 0.00 0.00 31 982.1
20260904094424 68 245 1.7 3.5 0.00 0.00 0.00 32 982.0
20260904093924 68 187 1.7 3.5 0.00 0.00 0.00 31 982.0
20260904093429 69 218 0.9 5.2 0.00 0.00 0.00 31 981.9
20260904093423 69 195 0.9 3.5 0.00 0.00 0.00 31 981.9
20260904093029 69 225 1.7 5.2 0.00 0.00 0.00 30 981.9
20260904091923 69 205 2.6 7.0 0.00 0.00 0.00 30 981.9
20260904091422 70 174 3.5 7.8 0.00 0.00 0.00 30 981.8
20260904090925 69 205 2.6 6.1 0.00 0.00 0.00 32 981.7
20260904090921 69 198 2.6 7.8 0.00 0.00 0.00 31 981.8
20260904085922 69 189 1.7 3.5 0.00 0.00 0.00 32 981.7
20260904085421 69 202 0.9 3.5 0.00 0.00 0.00 32 981.7
20260904084920 69 204 1.7 3.5 0.00 0.00 0.00 33 981.5
20260904084419 69 219 1.7 5.2 0.00 0.00 0.00 33 981.5
20260904083924 68 213 0.9 3.5 0.00 0.00 0.00 36 981.5
20260904083919 69 200 2.6 5.2 0.00 0.00 0.00 34 981.5
20260904083419 69 172 1.7 4.3 0.00 0.00 0.00 34 981.5
20260904082424 65 199 0.0 1.7 0.00 0.00 0.00 42 981.7
20260904082419 66 196 0.0 2.6 0.00 0.00 0.00 39 981.5
20260904081419 65 203 0.0 0.0 0.00 0.00 0.00 44 981.7
20260904080920 66 203 0.0 0.0 0.00 0.00 0.00 44 981.5
20260904080419 68 203 0.0 0.0 0.00 0.00 0.00 43 981.7
20260904075919 68 203 0.9 4.3 0.00 0.00 0.00 41 981.7
20260904075417 69 199 1.7 4.3 0.00 0.00 0.00 42 981.5
20260904074917 69 192 2.6 4.3 0.00 0.00 0.00 43 981.5
20260904074417 69 188 2.6 6.1 0.00 0.00 0.00 44 981.5
20260904073917 69 200 2.6 6.1 0.00 0.00 0.00 44 981.5
20260904073417 69 176 2.6 7.0 0.00 0.00 0.00 44 981.7
20260904072922 69 210 2.6 7.0 0.00 0.00 0.00 44 981.7
20260904072918 69 205 2.6 7.0 0.00 0.00 0.00 44 981.7
20260904071921 69 200 1.7 6.1 0.00 0.00 0.00 44 981.7
20260904071917 69 198 2.6 6.1 0.00 0.00 0.00 44 981.8
20260904070917 69 142 0.9 4.3 0.00 0.00 0.00 44 981.7
20260904070415 70 184 1.7 7.0 0.00 0.00 0.00 43 981.9
20260904065915 70 190 3.5 7.0 0.00 0.00 0.00 42 981.9
20260904065415 70 214 3.5 7.8 0.00 0.00 0.00 42 982.0
20260904064916 71 189 4.3 9.6 0.00 0.00 0.00 42 982.0
20260904064415 71 191 4.3 9.6 0.00 0.00 0.00 42 982.0
20260904063915 70 205 3.5 8.7 0.00 0.00 0.00 42 981.9
20260904063415 70 194 3.5 8.7 0.00 0.00 0.00 42 981.9
20260904062915 71 162 4.3 8.7 0.00 0.00 0.00 41 981.9
20260904062413 71 215 3.5 8.7 0.00 0.00 0.00 41 981.9
20260904061913 71 134 3.5 7.0 0.00 0.00 0.00 41 981.9
20260904061411 71 163 3.5 9.6 0.00 0.00 0.00 41 981.9
20260904060411 71 213 4.3 9.6 0.00 0.00 0.00 40 981.9
20260904055909 71 198 4.3 8.7 0.00 0.00 0.00 40 981.9
20260904055407 72 146 4.3 11.3 0.00 0.00 0.00 40 982.0
20260904054908 72 191 4.3 11.3 0.00 0.00 0.00 39 981.9
20260904054408 72 195 4.3 11.3 0.00 0.00 0.00 39 982.0
20260904053908 72 141 4.3 11.3 0.00 0.00 0.00 39 982.0
20260904053408 72 154 4.3 10.4 0.00 0.00 0.00 39 982.0
20260904052908 72 102 4.3 8.7 0.00 0.00 0.00 39 982.0
20260904052408 72 201 3.5 8.7 0.00 0.00 0.00 39 982.1
20260904051907 72 188 4.3 8.7 0.00 0.00 0.00 39 982.1
20260904051408 72 176 5.2 9.6 0.00 0.00 0.00 39 982.1
20260904050908 72 191 5.2 10.4 0.00 0.00 0.00 39 982.1
20260904050408 72 140 5.2 10.4 0.00 0.00 0.00 38 982.1
20260904045910 72 156 4.3 9.6 0.00 0.00 0.00 38 982.1
20260904045906 72 177 4.3 9.6 0.00 0.00 0.00 38 982.1
20260904045511 72 158 5.2 10.4 0.00 0.00 0.00 38 982.1
20260904044405 72 198 4.3 10.4 0.00 0.00 0.00 37 982.2
20260904043905 72 166 2.6 7.8 0.00 0.00 0.00 37 982.4
20260904043404 71 188 1.7 7.8 0.00 0.00 0.00 37 982.4
20260904042910 69 251 0.0 0.9 0.00 0.00 0.00 34 982.6
20260904042904 71 174 0.9 7.0 0.00 0.00 0.00 36 982.5
20260904042404 69 200 0.0 0.9 0.00 0.00 0.00 35 982.6
20260904041408 70 188 0.0 0.0 0.00 0.00 0.00 32 982.6
20260904041404 69 224 0.0 0.9 0.00 0.00 0.00 33 982.6
20260904040403 71 188 0.0 0.0 0.00 0.00 0.00 31 982.6
20260904035908 72 188 0.0 0.0 0.00 0.00 0.00 30 982.5
20260904035904 71 188 0.0 0.0 0.00 0.00 0.00 30 982.5
20260904034904 73 188 0.0 0.0 0.00 0.00 0.00 29 982.4
20260904034403 73 188 0.0 2.6 0.00 0.00 0.00 28 982.4
20260904033904 74 216 0.9 5.2 0.00 0.00 0.00 28 982.2
20260904033404 74 203 2.6 5.2 0.00 0.00 0.00 27 982.1
20260904032904 74 215 1.7 5.2 0.00 0.00 0.00 28 982.0
20260904032403 74 209 1.7 4.3 0.00 0.00 0.00 28 981.9
20260904031904 74 192 1.7 4.3 0.00 0.00 0.00 28 981.8
20260904031403 74 188 1.7 6.1 0.00 0.00 0.00 28 981.8
20260904030904 74 174 2.6 7.0 0.00 0.00 0.00 28 981.7
20260904030408 73 186 1.7 6.1 0.00 0.00 0.00 28 981.7
20260904030403 74 189 2.6 7.0 0.00 0.00 0.00 28 981.8
20260904025403 74 188 2.6 5.2 0.00 0.00 0.00 28 981.7
20260904024908 74 155 2.6 7.0 0.00 0.00 0.00 27 981.4
20260904024904 74 143 2.6 7.0 0.00 0.00 0.00 28 981.5
20260904023903 75 169 3.5 7.0 0.00 0.00 0.00 27 981.4
20260904023404 75 195 2.6 6.1 0.00 0.00 0.00 27 981.3
20260904022903 75 161 2.6 6.1 0.00 0.00 0.00 27 981.3
20260904022403 74 87 2.6 5.2 0.00 0.00 0.00 27 981.2
20260904021904 74 158 1.7 5.2 0.00 0.00 0.00 27 981.2
20260904021408 75 197 1.7 5.2 0.00 0.00 0.00 27 981.1
20260904021403 74 167 1.7 4.3 0.00 0.00 0.00 27 981.1
20260904020403 75 158 1.7 5.2 0.00 0.00 0.00 26 981.1
20260904015903 76 127 1.7 5.2 0.00 0.00 0.00 26 981.1
20260904015409 77 212 0.9 6.1 0.00 0.00 0.00 25 980.8
20260904015403 76 115 1.7 5.2 0.00 0.00 0.00 25 980.9
20260904014403 77 168 1.7 6.1 0.00 0.00 0.00 25 980.8
20260904013907 78 164 1.7 5.2 0.00 0.00 0.00 24 980.7
20260904013903 77 181 0.9 3.5 0.00 0.00 0.00 25 980.8
20260904012904 78 158 2.6 5.2 0.00 0.00 0.00 24 980.7
20260904012402 78 198 2.6 4.3 0.00 0.00 0.00 24 980.6
20260904011904 79 169 2.6 5.2 0.00 0.00 0.00 24 980.6
20260904011408 80 162 1.7 4.3 0.00 0.00 0.00 24 980.6
20260904011403 79 212 1.7 5.2 0.00 0.00 0.00 24 980.6
20260904010901 80 186 2.6 4.3 0.00 0.00 0.00 23 980.6
20260904005905 82 196 2.6 9.6 0.00 0.00 0.00 22 980.6
20260904005901 81 157 2.6 6.1 0.00 0.00 0.00 23 980.6
20260904004901 83 120 3.5 9.6 0.00 0.00 0.00 21 980.6
20260904004401 84 136 2.6 7.0 0.00 0.00 0.00 21 980.6
20260904003859 84 168 2.6 10.4 0.00 0.00 0.00 21 980.6
20260904003359 85 195 4.3 10.4 0.00 0.00 0.00 20 980.6
20260904002859 85 167 3.5 9.6 0.00 0.00 0.00 20 980.6
20260904002400 85 165 3.5 11.3 0.00 0.00 0.00 20 980.6
20260904001859 85 138 3.5 11.3 0.00 0.00 0.00 21 980.6
20260904001404 86 182 2.6 9.6 0.00 0.00 0.00 20 980.7
20260904001400 86 223 3.5 9.6 0.00 0.00 0.00 20 980.6
20260904000359 87 151 4.3 9.6 0.00 0.00 0.00 20 980.6
20260903235859 87 113 4.3 10.4 0.00 0.00 0.00 19 980.6
20260903235358 87 193 4.3 10.4 0.00 0.00 0.00 20 980.7
20260903234902 87 186 4.3 8.7 0.00 0.00 0.00 18 980.7
20260903234858 87 205 4.3 9.6 0.00 0.00 0.00 18 980.7
20260903233857 88 207 4.3 9.6 0.00 0.00 0.00 18 980.7
20260903233357 88 172 4.3 9.6 0.00 0.00 0.00 18 980.7
20260903232858 89 155 2.6 7.8 0.00 0.00 0.00 18 980.6
20260903232357 89 167 2.6 7.0 0.00 0.00 0.00 16 980.7
20260903231857 88 200 3.5 10.4 0.00 0.00 0.00 15 980.6
20260903231401 88 160 5.2 11.3 0.00 0.00 0.00 14 980.6
20260903231357 88 219 5.2 11.3 0.00 0.00 0.00 14 980.7
20260903230356 88 200 3.5 10.4 0.00 0.00 0.00 13 980.6
20260903225857 88 148 4.3 10.4 0.00 0.00 0.00 13 980.7
20260903225357 88 210 5.2 10.4 0.00 0.00 0.00 13 980.8
20260903224857 88 243 5.2 13.9 0.00 0.00 0.00 13 980.8
20260903224357 88 204 6.1 13.9 0.00 0.00 0.00 13 980.8
20260903223858 88 220 5.2 10.4 0.00 0.00 0.00 13 980.8
20260903223357 88 210 3.5 10.4 0.00 0.00 0.00 14 980.8
20260903222857 88 228 2.6 9.6 0.00 0.00 0.00 14 980.9
20260903222357 88 205 2.6 9.6 0.00 0.00 0.00 14 981.1
20260903221857 87 224 2.6 12.2 0.00 0.00 0.00 16 980.9
20260903221357 87 230 3.5 12.2 0.00 0.00 0.00 16 981.1
20260903220857 88 207 2.6 8.7 0.00 0.00 0.00 16 981.3
20260903220355 87 235 4.3 11.3 0.00 0.00 0.00 15 981.3
20260903215858 87 200 5.2 13.0 0.00 0.00 0.00 15 981.3
20260903215854 88 206 4.3 13.0 0.00 0.00 0.00 16 981.4
20260903214857 87 226 4.3 11.3 0.00 0.00 0.00 16 981.4
20260903214853 88 172 4.3 11.3 0.00 0.00 0.00 16 981.3
20260903213853 87 212 5.2 13.0 0.00 0.00 0.00 16 981.4
20260903213352 88 214 4.3 13.0 0.00 0.00 0.00 16 981.4
20260903212851 88 223 4.3 9.6 0.00 0.00 0.00 18 981.4
20260903212348 87 149 3.5 9.6 0.00 0.00 0.00 18 981.4
20260903211852 87 207 3.5 8.7 0.00 0.00 0.00 18 981.5
20260903211848 87 210 5.2 11.3 0.00 0.00 0.00 16 981.5
20260903210851 88 192 2.6 10.4 0.00 0.00 0.00 17 981.7
20260903210847 88 196 4.3 11.3 0.00 0.00 0.00 17 981.7
20260903205847 87 224 3.5 10.4 0.00 0.00 0.00 18 981.8
20260903205348 87 188 4.3 10.4 0.00 0.00 0.00 19 981.9
20260903204849 87 214 4.3 9.6 0.00 0.00 0.00 18 982.0
20260903204845 87 216 4.3 10.4 0.00 0.00 0.00 19 981.9
20260903203843 87 207 4.3 12.2 0.00 0.00 0.00 17 982.1
20260903203343 87 205 2.6 12.2 0.00 0.00 0.00 18 982.1
20260903202840 87 105 3.5 11.3 0.00 0.00 0.00 18 982.1
20260903202341 86 257 5.2 11.3 0.00 0.00 0.00 18 982.2
20260903201841 87 164 5.2 11.3 0.00 0.00 0.00 18 982.1
20260903201345 86 217 1.7 7.0 0.00 0.00 0.00 20 982.0
20260903201341 87 235 3.5 11.3 0.00 0.00 0.00 19 982.1
20260903200345 86 321 2.6 8.7 0.00 0.00 0.00 19 982.4
20260903200341 86 153 1.7 7.8 0.00 0.00 0.00 19 982.1
20260903195840 86 303 2.6 7.8 0.00 0.00 0.00 19 982.2
20260903194841 86 253 2.6 8.7 0.00 0.00 0.00 18 982.4
20260903194341 86 198 2.6 7.8 0.00 0.00 0.00 19 982.4
20260903193841 85 207 2.6 8.7 0.00 0.00 0.00 19 982.5
20260903193340 85 242 2.6 12.2 0.00 0.00 0.00 19 982.6
20260903192840 85 274 3.5 12.2 0.00 0.00 0.00 19 982.6
20260903192340 85 283 4.3 11.3 0.00 0.00 0.00 18 982.7
20260903191840 85 200 4.3 12.2 0.00 0.00 0.00 19 982.7
20260903191340 85 210 3.5 12.2 0.00 0.00 0.00 19 982.8
20260903190840 84 131 3.5 8.7 0.00 0.00 0.00 20 982.7
20260903190341 85 185 3.5 9.6 0.00 0.00 0.00 19 983.1
20260903185840 84 232 3.5 9.6 0.00 0.00 0.00 20 983.1
20260903185340 84 173 5.2 11.3 0.00 0.00 0.00 20 983.2
20260903184841 85 206 5.2 11.3 0.00 0.00 0.00 20 983.3
20260903184341 84 119 3.5 8.7 0.00 0.00 0.00 20 983.2
20260903183841 84 195 5.2 11.3 0.00 0.00 0.00 22 983.3
20260903183344 83 204 5.2 12.2 0.00 0.00 0.00 21 983.4
20260903183340 84 191 6.1 12.2 0.00 0.00 0.00 20 983.4
20260903182341 83 202 3.5 10.4 0.00 0.00 0.00 21 983.4
20260903181841 83 196 2.6 7.8 0.00 0.00 0.00 23 983.5
20260903181345 82 165 3.5 9.6 0.00 0.00 0.00 23 983.9
20260903181341 82 171 1.7 7.8 0.00 0.00 0.00 22 983.7
20260903180839 83 304 3.5 9.6 0.00 0.00 0.00 23 983.7
20260903175839 83 192 2.6 8.7 0.00 0.00 0.00 23 984.0
20260903175336 82 277 2.6 8.7 0.00 0.00 0.00 22 984.0
20260903174837 82 186 2.6 8.7 0.00 0.00 0.00 22 984.0
20260903174337 82 275 1.7 8.7 0.00 0.00 0.00 23 984.0
20260903173837 83 202 0.9 6.1 0.00 0.00 0.00 24 984.0
20260903173335 82 148 0.9 6.1 0.00 0.00 0.00 25 984.1
20260903172838 80 239 3.5 8.7 0.00 0.00 0.00 24 984.3
20260903172834 81 140 1.7 7.0 0.00 0.00 0.00 24 984.0
20260903171831 80 257 2.6 8.7 0.00 0.00 0.00 24 984.3
20260903171330 80 216 0.9 7.0 0.00 0.00 0.00 25 984.3
20260903170830 80 231 1.7 7.0 0.00 0.00 0.00 26 984.3
20260903170330 80 305 1.7 5.2 0.00 0.00 0.00 26 984.4
20260903165830 79 321 1.7 10.4 0.00 0.00 0.00 25 984.3
20260903165330 79 244 2.6 10.4 0.00 0.00 0.00 25 984.4
20260903164830 79 253 2.6 7.8 0.00 0.00 0.00 25 984.4
20260903164330 79 210 2.6 12.2 0.00 0.00 0.00 25 984.4
20260903163831 79 217 2.6 12.2 0.00 0.00 0.00 25 984.4
20260903163330 78 190 2.6 7.8 0.00 0.00 0.00 27 984.3
20260903162830 78 217 1.7 8.7 0.00 0.00 0.00 26 984.3
20260903162330 78 291 3.5 8.7 0.00 0.00 0.00 27 984.3
20260903161830 78 236 3.5 8.7 0.00 0.00 0.00 27 984.3
20260903161330 78 213 2.6 8.7 0.00 0.00 0.00 28 984.3
20260903160834 77 225 4.3 7.8 0.00 0.00 0.00 29 984.3
20260903160830 77 221 3.5 8.7 0.00 0.00 0.00 30 984.4
20260903155830 77 190 4.3 9.6 0.00 0.00 0.00 29 984.4
20260903155336 77 202 5.2 10.4 0.00 0.00 0.00 30 984.4
20260903155331 76 174 5.2 10.4 0.00 0.00 0.00 30 984.4
20260903154331 77 162 4.3 8.7 0.00 0.00 0.00 30 984.3
20260903153830 76 221 4.3 8.7 0.00 0.00 0.00 31 984.4
20260903153329 76 212 4.3 8.7 0.00 0.00 0.00 31 984.4
20260903152828 75 219 4.3 8.7 0.00 0.00 0.00 31 984.4
20260903152328 75 229 4.3 9.6 0.00 0.00 0.00 32 984.4
20260903151828 75 161 4.3 9.6 0.00 0.00 0.00 32 984.4
20260903151333 74 220 4.3 8.7 0.00 0.00 0.00 32 984.4
20260903150829 74 214 4.3 8.7 0.00 0.00 0.00 33 984.5
20260903150328 74 202 4.3 9.6 0.00 0.00 0.00 33 984.6
20260903145828 73 205 4.3 9.6 0.00 0.00 0.00 33 984.6
20260903145330 73 231 2.6 8.7 0.00 0.00 0.00 33 984.6
20260903145326 73 246 2.6 8.7 0.00 0.00 0.00 35 984.5